map of APL home
Great Circle Mapper logo
APL - Airport
Location
City:  Nampula, Mozambique
ICAO:FQNP
IATA:APL

Details
Type:Airport (Aerodrome, Airfield)
Use:Public/Civil
Latitude:1506'20"S (-15.105610)
Longitude:3916'54"E (39.281800)
Datum:WGS 1984
Elevation:1444 ft (440 m)
Variation:8.20W (WMM2015 magnetic declination)
-0.04 annual change
Runways:2
Longest:6562 × 148 ft (2000 × 45 m), paved

Time
Time Zone:UTC+2
Local Time:

Weather
TAF:FQNP 061200Z 0612/0718 15012KT 9999 SCT025
BECMG 0618/0620 22008KT
BECMG 0708/0710 17010KT TX27/0612ZTN19/0703Z

Related Locations
Nearby:
Farthest:ITO: 11449 mi / 18426 km
Hilo [Hilo Intl], Hawaii, HI, US

Find:

   beyond  
but within

Other Information
Maps:
NOTAMs:
Links:
Sources:

  
flag of Mozambique   

Sectional Chart

Flight Planning
at skyvector.com

Satellite Image

Google Maps Satellite view

 

Copyright © 2004-2016 Karl L. Swartz. All rights reserved.
The Great Circle Mapper name and logo are trademarks of the Great Circle Mapper.
All other trademarks mentioned herein belong to their respective owners.
Please see credits for attibutions and further copyright information.

  Follow gcmap on Facebook Follow gcmap on Twitter Follow gcmap on Google+ GCmap on LinkedIn

hCard Microformat

Geo Microformat